Fairbanks Eiels, AK

8:26 PM AKST on December 09, 2019 (GMT -0900)
Eielson Air Force Base

Weather History for PAEI - October, 2019

Change the Weather History Date:

Tuesday, October 8, 2019

  Actual Average Record
Temperature  
Mean Temperature 34 °F -  
Max Temperature 39 °F 39 °F 62 °F (1969)
Min Temperature 30 °F 26 °F 10 °F (1998)
Degree Days  
Heating Degree Days 30    
Moisture  
Dew Point 29 °F    
Average Humidity 79    
Maximum Humidity 93    
Minimum Humidity 69    
Precipitation  
Precipitation 0.01 in - - ()
Snow  
Snow 0.00 in - - ()
Snow Depth 2.00 in    
Sea Level Pressure  
Sea Level Pressure 30.11 in    
Wind  
Wind Speed 3 mph (SSE)    
Max Wind Speed 10 mph    
Max Gust Speed -    
Visibility 10 miles    
Events Rain    
Averages and records for this station are not official NWS values.
T = Trace of Precipitation, MM = Missing Value Source: NWS Daily Summary

Daily Weather History Graph

Daily Weather History Graph

Search for Another Location

Airport or City:

Astronomy

Oct. 08, 2019 Rise Set
Actual Time 8:18 AM AKDT 6:51 PM AKDT
Civil Twilight 7:29 AM AKDT 7:40 PM AKDT
Nautical Twilight 6:33 AM AKDT 8:36 PM AKDT
Astronomical Twilight 5:33 AM AKDT 9:35 PM AKDT
Moon 7:06 PM AKDT (10/8) 12:45 AM AKDT (10/8)
Length of Visible Light 12h 10m
Length of Day
10h 32m
Waxing Gibbous, 79% of the Moon is Illuminated
Oct 8
Waxing Gibbous
Oct 13
Full
Oct 21
Last Quarter
Oct 27
New
Nov 4
First Quarter

Hourly Weather History & Observations

Time (AKDT) Temp. Windchill Dew Point Humidity Pressure Visibility Wind Dir Wind Speed Gust Speed Precip Events Conditions
12:56 AM 30.2 °F - 26.8 °F 87% 30.24 in 10.0 mi Calm Calm - N/A   Overcast
1:41 AM 30.2 °F - 26.6 °F 86% 30.24 in 10.0 mi Calm Calm - N/A   Overcast
1:56 AM 30.2 °F - 27.7 °F 90% 30.24 in 10.0 mi Calm Calm - N/A   Overcast
2:26 AM 30.2 °F - 28.4 °F 93% 30.23 in 10.0 mi Calm Calm - N/A   Overcast
2:41 AM 30.2 °F 26.7 °F 28.4 °F 93% 30.23 in 10.0 mi WNW 3.5 mph - N/A   Overcast
2:56 AM 30.7 °F - 27.7 °F 88% 30.23 in 10.0 mi Calm Calm - N/A   Overcast
3:56 AM 31.1 °F 25.4 °F 27.1 °F 85% 30.21 in 10.0 mi ESE 5.8 mph - N/A   Overcast
4:11 AM 32.0 °F 25.6 °F 26.6 °F 80% 30.20 in 10.0 mi ESE 6.9 mph - N/A   Overcast
4:56 AM 32.5 °F 25.5 °F 26.4 °F 78% 30.15 in 10.0 mi East 8.1 mph - N/A   Overcast
5:11 AM 32.0 °F 24.2 °F 26.6 °F 80% 30.15 in 10.0 mi SE 9.2 mph - N/A   Overcast
5:56 AM 32.7 °F 28.3 °F 26.1 °F 76% 30.17 in 10.0 mi South 4.6 mph - N/A   Overcast
6:56 AM 32.2 °F 25.8 °F 25.7 °F 77% 30.16 in 10.0 mi SE 6.9 mph - N/A   Overcast
7:26 AM 32.0 °F 25.6 °F 26.6 °F 80% 30.15 in 10.0 mi SSE 6.9 mph - N/A   Overcast
7:56 AM 32.2 °F 27.7 °F 26.1 °F 78% 30.14 in 10.0 mi SSE 4.6 mph - N/A   Mostly Cloudy
8:11 AM 32.0 °F 26.4 °F 26.6 °F 80% 30.14 in 10.0 mi South 5.8 mph - N/A   Mostly Cloudy
8:41 AM 32.0 °F 28.7 °F 26.6 °F 80% 30.10 in 10.0 mi SE 3.5 mph - N/A   Mostly Cloudy
8:56 AM 32.0 °F 27.5 °F 25.9 °F 78% 30.13 in 10.0 mi South 4.6 mph - N/A   Overcast
9:26 AM 32.0 °F 28.7 °F 26.6 °F 80% 30.13 in 10.0 mi SW 3.5 mph - N/A   Overcast
9:56 AM 32.9 °F 28.5 °F 26.8 °F 78% 30.13 in 10.0 mi SW 4.6 mph - N/A   Overcast
10:56 AM 34.0 °F - 27.5 °F 77% 30.13 in 10.0 mi Calm Calm - N/A   Overcast
11:56 AM 34.7 °F - 27.5 °F 75% 30.13 in 10.0 mi Calm Calm - N/A   Overcast
12:56 PM 37.0 °F - 28.6 °F 71% 30.10 in 10.0 mi Calm Calm - N/A   Overcast
1:56 PM 38.5 °F - 29.1 °F 69% 30.09 in 10.0 mi Calm Calm - N/A   Overcast
2:11 PM 39.2 °F - 30.2 °F 70% 30.09 in 10.0 mi Calm Calm - N/A   Overcast
2:56 PM 38.1 °F 32.9 °F 28.9 °F 70% 30.08 in 10.0 mi South 6.9 mph - N/A   Overcast
3:56 PM 39.0 °F 35.7 °F 29.7 °F 69% 30.07 in 10.0 mi South 4.6 mph - N/A   Overcast
4:11 PM 39.2 °F 35.9 °F 30.2 °F 70% 30.08 in 8.0 mi South 4.6 mph - N/A   Overcast
4:56 PM 38.1 °F 33.7 °F 29.8 °F 72% 30.07 in 10.0 mi South 5.8 mph - N/A   Overcast
5:56 PM 38.1 °F - 30.2 °F 73% 30.06 in 10.0 mi Calm Calm - N/A   Mostly Cloudy
6:56 PM 36.1 °F - 31.8 °F 84% 30.05 in 10.0 mi Calm Calm - N/A   Overcast
7:56 PM 36.9 °F 32.2 °F 30.9 °F 79% 30.03 in 10.0 mi SE 5.8 mph - N/A   Overcast
8:26 PM 37.4 °F 30.8 °F 30.2 °F 75% 30.03 in 10.0 mi South 9.2 mph - N/A   Overcast
8:56 PM 37.2 °F 30.6 °F 30.4 °F 76% 30.03 in 10.0 mi South 9.2 mph - N/A   Overcast
9:30 PM 37.4 °F 32.1 °F 30.2 °F 75% 30.03 in 10.0 mi South 6.9 mph - N/A Rain Light Rain
9:56 PM 36.1 °F 32.3 °F 31.5 °F 83% 30.03 in 10.0 mi South 4.6 mph - N/A   Overcast
10:10 PM 37.4 °F 32.1 °F 32.0 °F 81% 30.02 in 10.0 mi SSE 6.9 mph - N/A Rain Light Rain
10:20 PM 37.4 °F 31.4 °F 32.0 °F 81% 30.02 in 10.0 mi SSE 8.1 mph - N/A   Overcast
10:56 PM 36.3 °F 29.5 °F 32.0 °F 84% 30.02 in 10.0 mi South 9.2 mph - 0.00 in Rain Light Rain
11:10 PM 37.4 °F 30.3 °F 32.0 °F 81% 30.02 in 10.0 mi South 10.4 mph - N/A Rain Light Rain
11:23 PM 37.4 °F 32.1 °F 32.0 °F 81% 30.02 in 10.0 mi South 6.9 mph - N/A   Overcast
11:27 PM 37.4 °F 31.4 °F 32.0 °F 81% 30.02 in 10.0 mi SSE 8.1 mph - N/A Rain Light Rain
11:31 PM 37.4 °F 32.1 °F 32.0 °F 81% 30.03 in 10.0 mi SSE 6.9 mph - N/A   Overcast
11:33 PM 37.4 °F 32.1 °F 32.0 °F 81% 30.03 in 10.0 mi South 6.9 mph - N/A Rain Light Rain
11:56 PM 36.7 °F 34.1 °F 33.3 °F 87% 30.03 in 8.0 mi SSW 3.5 mph - 0.01 in Rain Light Rain